TimeCDT,TemperatureF,Dew PointF,Humidity,Sea Level PressureIn,VisibilityMPH,Wind Direction,Wind SpeedMPH,Gust SpeedMPH,PrecipitationIn,Events,Conditions,WindDirDegrees,DateUTC
12:15 AM,24.8,19.4,80,30.28,10.0,South,10.4,-,N/A,,Unknown,180,2014-03-16 05:15:00
12:35 AM,24.8,19.4,80,30.26,10.0,South,16.1,20.7,N/A,,Unknown,170,2014-03-16 05:35:00
12:55 AM,24.8,19.4,80,30.25,10.0,South,17.3,21.9,N/A,,Unknown,180,2014-03-16 05:55:00
1:15 AM,24.8,21.2,86,30.24,10.0,South,15.0,-,N/A,,Unknown,190,2014-03-16 06:15:00
1:35 AM,24.8,21.2,86,30.23,10.0,South,17.3,26.5,N/A,,Unknown,190,2014-03-16 06:35:00
1:55 AM,24.8,21.2,86,30.22,10.0,South,18.4,23.0,N/A,,Unknown,190,2014-03-16 06:55:00
2:15 AM,24.8,23.0,93,30.19,10.0,South,24.2,27.6,N/A,,Unknown,190,2014-03-16 07:15:00
2:35 AM,24.8,23.0,93,30.17,10.0,South,25.3,34.5,N/A,,Unknown,190,2014-03-16 07:35:00
2:55 AM,24.8,23.0,93,30.17,10.0,South,23.0,32.2,N/A,,Unknown,190,2014-03-16 07:55:00
3:15 AM,24.8,23.0,93,30.18,10.0,South,18.4,26.5,N/A,,Unknown,190,2014-03-16 08:15:00
3:35 AM,23.0,23.0,100,30.17,10.0,South,20.7,27.6,N/A,,Unknown,190,2014-03-16 08:35:00
3:55 AM,23.0,21.2,93,30.16,10.0,South,15.0,-,N/A,,Unknown,190,2014-03-16 08:55:00
4:15 AM,23.0,21.2,93,30.15,10.0,South,16.1,-,N/A,,Unknown,190,2014-03-16 09:15:00
4:35 AM,23.0,23.0,100,30.14,10.0,South,17.3,21.9,N/A,,Unknown,190,2014-03-16 09:35:00
4:55 AM,24.8,23.0,93,30.13,10.0,South,17.3,-,N/A,,Unknown,190,2014-03-16 09:55:00
5:15 AM,24.8,23.0,93,30.11,10.0,South,20.7,26.5,N/A,,Unknown,190,2014-03-16 10:15:00
5:35 AM,24.8,23.0,93,30.10,10.0,South,18.4,24.2,N/A,,Unknown,180,2014-03-16 10:35:00
5:55 AM,24.8,24.8,100,30.10,10.0,South,18.4,25.3,N/A,,Unknown,190,2014-03-16 10:55:00
6:15 AM,26.6,24.8,93,30.08,10.0,South,19.6,23.0,N/A,,Unknown,190,2014-03-16 11:15:00
6:35 AM,26.6,24.8,93,30.06,10.0,South,20.7,26.5,N/A,,Unknown,190,2014-03-16 11:35:00
6:55 AM,26.6,24.8,93,30.04,10.0,South,23.0,28.8,N/A,,Unknown,180,2014-03-16 11:55:00
7:15 AM,26.6,26.6,100,30.02,10.0,South,24.2,29.9,N/A,,Unknown,190,2014-03-16 12:15:00
7:35 AM,26.6,26.6,100,29.99,10.0,South,21.9,29.9,N/A,,Unknown,190,2014-03-16 12:35:00
7:55 AM,26.6,26.6,100,29.97,10.0,South,21.9,31.1,N/A,,Unknown,190,2014-03-16 12:55:00
8:15 AM,28.4,26.6,93,29.95,10.0,South,20.7,27.6,N/A,,Unknown,180,2014-03-16 13:15:00
8:35 AM,28.4,26.6,93,29.94,10.0,South,20.7,27.6,N/A,,Unknown,180,2014-03-16 13:35:00
8:55 AM,28.4,26.6,93,29.93,10.0,South,21.9,29.9,N/A,,Unknown,180,2014-03-16 13:55:00
9:15 AM,28.4,26.6,93,29.92,10.0,South,21.9,29.9,N/A,,Unknown,190,2014-03-16 14:15:00
9:35 AM,28.4,28.4,100,29.90,10.0,South,19.6,25.3,N/A,,Unknown,180,2014-03-16 14:35:00
9:55 AM,30.2,28.4,93,29.89,10.0,South,20.7,31.1,N/A,,Unknown,190,2014-03-16 14:55:00
10:15 AM,32.0,28.4,87,29.87,10.0,South,24.2,29.9,N/A,,Unknown,190,2014-03-16 15:15:00
10:35 AM,32.0,28.4,87,29.86,10.0,South,23.0,-,N/A,,Unknown,190,2014-03-16 15:35:00
10:55 AM,32.0,30.2,93,29.84,10.0,South,20.7,28.8,N/A,,Unknown,190,2014-03-16 15:55:00
11:15 AM,33.8,32.0,93,29.84,10.0,South,20.7,27.6,N/A,,Unknown,190,2014-03-16 16:15:00
11:35 AM,33.8,32.0,93,29.82,10.0,SSW,26.5,34.5,N/A,,Unknown,200,2014-03-16 16:35:00
11:55 AM,35.6,32.0,87,29.80,10.0,SSW,27.6,33.4,N/A,,Unknown,200,2014-03-16 16:55:00
12:15 PM,37.4,32.0,81,29.78,10.0,SSW,26.5,36.8,N/A,,Unknown,200,2014-03-16 17:15:00
12:35 PM,37.4,33.8,87,29.76,10.0,SSW,25.3,36.8,N/A,,Unknown,200,2014-03-16 17:35:00
12:55 PM,39.2,33.8,81,29.76,10.0,SSW,27.6,33.4,N/A,,Unknown,210,2014-03-16 17:55:00
1:15 PM,41.0,35.6,81,29.74,10.0,SSW,25.3,32.2,N/A,,Unknown,210,2014-03-16 18:15:00
1:35 PM,44.6,37.4,76,29.73,10.0,SSW,20.7,28.8,N/A,,Unknown,210,2014-03-16 18:35:00
1:55 PM,46.4,35.6,66,29.72,10.0,SW,21.9,27.6,N/A,,Unknown,230,2014-03-16 18:55:00
2:15 PM,46.4,33.8,62,29.71,10.0,SW,18.4,25.3,N/A,,Unknown,230,2014-03-16 19:15:00
2:35 PM,46.4,35.6,66,29.69,10.0,WSW,17.3,24.2,N/A,,Unknown,240,2014-03-16 19:35:00
2:55 PM,46.4,35.6,66,29.68,10.0,SW,21.9,27.6,N/A,,Unknown,230,2014-03-16 19:55:00
3:15 PM,50.0,37.4,62,29.67,10.0,WSW,18.4,26.5,N/A,,Unknown,240,2014-03-16 20:15:00
3:35 PM,51.8,37.4,58,29.67,10.0,WSW,17.3,21.9,N/A,,Unknown,250,2014-03-16 20:35:00
3:55 PM,53.6,35.6,51,29.66,10.0,WNW,20.7,31.1,N/A,,Unknown,300,2014-03-16 20:55:00
4:15 PM,53.6,35.6,51,29.66,10.0,WNW,23.0,29.9,N/A,,Unknown,290,2014-03-16 21:15:00
4:35 PM,53.6,37.4,54,29.67,10.0,WNW,21.9,26.5,N/A,,Unknown,290,2014-03-16 21:35:00
4:55 PM,53.6,37.4,54,29.68,10.0,WNW,18.4,25.3,N/A,,Unknown,300,2014-03-16 21:55:00
5:15 PM,50.0,35.6,58,29.68,10.0,NW,18.4,-,N/A,,Unknown,310,2014-03-16 22:15:00
5:35 PM,50.0,35.6,58,29.67,10.0,NW,17.3,21.9,N/A,,Unknown,310,2014-03-16 22:35:00
5:55 PM,50.0,33.8,54,29.68,10.0,NW,17.3,25.3,N/A,,Unknown,310,2014-03-16 22:55:00
6:15 PM,48.2,35.6,62,29.67,10.0,NW,13.8,-,N/A,,Unknown,320,2014-03-16 23:15:00
6:35 PM,46.4,35.6,66,29.67,10.0,NW,9.2,-,N/A,,Unknown,320,2014-03-16 23:35:00
6:55 PM,46.4,35.6,66,29.66,10.0,NW,10.4,-,N/A,,Unknown,310,2014-03-16 23:55:00
7:15 PM,44.6,35.6,71,29.66,10.0,WNW,10.4,-,N/A,,Unknown,300,2014-03-17 00:15:00
7:35 PM,41.0,35.6,81,29.66,10.0,NW,8.1,-,N/A,,Unknown,310,2014-03-17 00:35:00
7:55 PM,41.0,35.6,81,29.66,10.0,NNW,9.2,-,N/A,,Unknown,330,2014-03-17 00:55:00
8:15 PM,39.2,35.6,87,29.65,10.0,NW,8.1,-,N/A,,Unknown,310,2014-03-17 01:15:00
8:35 PM,37.4,35.6,93,29.64,10.0,NW,8.1,-,N/A,,Unknown,310,2014-03-17 01:35:00
8:55 PM,37.4,35.6,93,29.64,10.0,NNW,9.2,-,N/A,,Unknown,330,2014-03-17 01:55:00
9:15 PM,37.4,35.6,93,29.63,10.0,North,9.2,-,N/A,,Unknown,350,2014-03-17 02:15:00
9:35 PM,37.4,35.6,93,29.62,10.0,North,8.1,-,N/A,,Unknown,350,2014-03-17 02:35:00
9:55 PM,37.4,35.6,93,29.62,10.0,NW,5.8,-,N/A,,Unknown,320,2014-03-17 02:55:00
10:15 PM,35.6,35.6,100,29.62,10.0,Calm,Calm,-,N/A,,Unknown,0,2014-03-17 03:15:00
10:35 PM,33.8,33.8,100,29.61,10.0,SE,3.5,-,N/A,,Unknown,130,2014-03-17 03:35:00
10:55 PM,35.6,35.6,100,29.61,10.0,SSW,6.9,-,N/A,,Unknown,200,2014-03-17 03:55:00
11:15 PM,35.6,35.6,100,29.60,10.0,South,6.9,-,N/A,,Unknown,190,2014-03-17 04:15:00
11:35 PM,35.6,35.6,100,29.59,10.0,SSW,6.9,-,N/A,,Unknown,200,2014-03-17 04:35:00
11:55 PM,35.6,35.6,100,29.59,10.0,SSW,8.1,-,N/A,,Unknown,200,2014-03-17 04:55:00